Regional Weather Roundup
Issued by NWS Nashville, TN

Home | Current Version | Previous Version | Text Only | Print | Product List | Glossary On
Versions: 1 2 3 4 5 6 7 8 9 10 11 12 13 14 15 16 17 18 19 20 21 22 23 24 25 26 27 28 29 30 31 32 33 34 35 36 37 38 39 40 41 42 43 44 45 46 47 48 49 50
000
ASUS44 KOHX 290615
RWROHX
MIDDLE TENNESSEE HOURLY WEATHER ROUNDUP
NATIONAL WEATHER SERVICE NASHVILLE TN
100 AM CDT FRI AUG 29 2014

NOTE: "FAIR" INDICATES FEW OR NO CLOUDS BELOW 12,000 FEET WITH
NO SIGNIFICANT WEATHER AND/OR OBSTRUCTIONS TO VISIBILITY.

* THESE REPORTS ARE NOT UNDER NWS QUALITY CONTROL AND MAY NOT
  REPORT WEATHER SUCH AS PRECIPITATION AND FOG.


TNZ005>011-023>034-057-059-062>066-078-080-290700
...NORTHERN MIDDLE TENNESSEE...

CITY           SKY/WX    TMP DP  RH WIND       PRES   REMARKS
CLARKSVILLE      N/A     74  70  87 NE3       30.00F
CROSSVILLE       N/A     73  66  78 CALM      30.10S HAZE
GALLATIN         N/A     76  75  96 CALM      30.03S
DICKSON          N/A     72  70  94 CALM      30.02R
LEBANON          N/A     73  70  91 CALM      30.01R
NASHVILLE        N/A     75  72  90 CALM      30.02R
WEST NASHVILLE   N/A     73  73 100 CALM      30.01R
SMYRNA           N/A     76  73  90 CALM      30.03R
SPARTA           N/A     68  68 100 CALM      30.05R VSB 3/4
$$
TNZ056-058-060-061-075>077-079-093>097-290700
...SOUTHERN MIDDLE TENNESSEE...

CITY           SKY/WX    TMP DP  RH WIND       PRES   REMARKS
COLUMBIA         N/A     72  72 100 CALM      30.01R
FAYETTEVILLE   CLEAR     70  64  83 S3        30.03S
LEWISBURG        N/A     69  68  97 CALM      30.02R
MCMINNVILLE    CLOUDY    70  70 100 CALM      30.05R VSB 0
MURFREESBORO     N/A     76  71  84 CALM      30.01S
SHELBYVILLE    CLEAR     72  72 100 E3        30.03S
TULLAHOMA      CLEAR     66  64  94 CALM      30.06R
WINCHESTER     CLEAR     70  66  88 CALM      30.05R
$$


...KEY TO REMARKS...
VSB - VISIBILITY IN MILES
WCI - WIND CHILL INDEX
HX  - HEAT INDEX



USA.gov is the U.S. government's official web portal to all federal, state and local government web resources and services.